Regional Weather Roundup
Issued by NWS

Home | Current Version | Previous Version | Text Only | Print | Product List | Glossary Off
Versions: 1 2 3 4 5 6 7 8 9 10 11 12 13 14 15 16 17 18 19 20 21 22 23 24 25 26 27 28 29 30 31 32 33 34 35 36 37 38 39 40 41 42 43 44 45 46 47 48 49 50

000
ASUS45 KPSR 241300
RWRAZ

ARIZONA HOURLY REGIONAL WEATHER ROUNDUP
NATIONAL WEATHER SERVICE PHOENIX AZ
600 AM MST SUN MAY 24 2015

NOTE: FAIR INDICATES FEW OR NO CLOUDS BELOW 12,000 FEET WITH NO
SIGNIFICANT WEATHER AND/OR OBSTRUCTIONS TO VISIBILITY.

AZZ001>003-036-241400-
NORTHWEST ARIZONA

CITY           SKY/WX    TMP DP  RH WIND       PRES   REMARKS
KINGMAN        MOCLDY    54  37  52 S6        29.94R
$$

AZZ004>008-015-016-018-241400-
NORTH CENTRAL ARIZONA

CITY           SKY/WX    TMP DP  RH WIND       PRES   REMARKS
GRAND CANYON   CLOUDY    43  37  79 SW5       30.04R
WILLIAMS       CLOUDY    45  36  70 SE7       30.11R
PRESCOTT       CLEAR     46  35  65 S5        30.00R
FLAGSTAFF      NOT AVBL
PAYSON         CLEAR     46  34  61 CALM      30.03R
PAGE           CLOUDY    52  50  93 SE3       29.96S
$$

AZZ009>014-017-241400-
NORTHEAST ARIZONA

CITY           SKY/WX    TMP DP  RH WIND       PRES   REMARKS
WINSLOW        NOT AVBL
SAINT JOHNS    CLEAR     43  27  53 S5        30.01S
WINDOW ROCK    CLOUDY    44  38  79 SW5       30.02S
$$

AZZ023-241400-
GREATER PHOENIX AREA

CITY           SKY/WX    TMP DP  RH WIND       PRES   REMARKS
PHOENIX        CLEAR     66  43  43 E8        29.88R
DEER VALLEY    CLEAR     59  42  53 E3        29.89R
SCOTTSDALE     CLEAR     66  42  41 CALM      29.91R
MESA-GATEWAY   CLEAR     59  39  47 E7        29.91R
CHANDLER       CLEAR     59  45  58 NE6       29.90
$$

AZZ027-028-241400-
SOUTHWEST MARICOPA COUNTY AND PINAL COUNTY

CITY           SKY/WX    TMP DP  RH WIND       PRES   REMARKS
CASA GRANDE    CLEAR     59  39  47 CALM      29.90R
$$

AZZ503-504-507>509-241400-
SOUTHEAST ARIZONA

CITY           SKY/WX    TMP DP  RH WIND       PRES   REMARKS
TUCSON         CLEAR     58  36  43 SE9       29.97R
NOGALES        CLEAR     47  33  58 S3        30.00S
SAFFORD        CLEAR     52  28  39 E6        29.95R
$$

AZZ020-021-025-026-031-241400-
SOUTHWEST ARIZONA

CITY           SKY/WX    TMP DP  RH WIND       PRES   REMARKS
YUMA           CLEAR     62  47  57 S6        29.88R
$$

CAZ031-033-041-043-047-048-061-241400-
SOUTHERN CALIFORNIA

CITY           SKY/WX    TMP DP  RH WIND       PRES   REMARKS
DOWNTOWN L.A.  CLOUDY    60  50  69 CALM      29.99R
L.A. AIRPORT   CLOUDY    58  52  80 W7        30.00R
SAN DIEGO      CLOUDY    61  50  67 W8        30.03R
BURBANK        CLOUDY    59  50  72 CALM      29.99R
ONTARIO        CLOUDY    58  51  78 W5        29.99R
RIVERSIDE      CLOUDY    59  52  77 W5        30.00R
PALM SPRINGS   CLEAR     64  49  57 S6        29.88R
EL CENTRO NAS  CLEAR     64  44  48 SW15      29.90R
IMPERIAL       CLEAR     63  46  54 W13       29.88R
BLYTHE         MOCLDY    63  51  65 S5        29.86R
$$

NVZ020-UTZ003-241400-
SOUTHERN NEVADA-UTAH

CITY           SKY/WX    TMP DP  RH WIND       PRES   REMARKS
LAS VEGAS      NOT AVBL
SALT LAKE CITY MOCLDY    48  43  82 SE7       29.96R
$$

NMZ009-TXZ055-241400-
NEW MEXICO-WEST TEXAS

CITY           SKY/WX    TMP DP  RH WIND       PRES   REMARKS
ALBUQUERQUE    PTSUNNY   50  36  58 S3        30.00R
EL PASO        SUNNY     62  26  25 SW9       29.96R
$$


........................KEY........................
SKY/WX - SKY CONDITION/WEATHER
TMP    - TEMPERATURE IN FAHRENHEIT
DP     - DEW POINT IN FAHRENHEIT
RH     - RELATIVE HUMIDITY IN PERCENT
WIND   - DIRECTION AND SPEED IN MILES PER HOUR (MPH)
VRB    - VARIABLE WIND DIRECTION
PRES   - MEAN SEA LEVEL PRESSURE IN INCHES OF MERCURY
         F - FALLING PRESSURE   R - RISING PRESSURE
         S - STEADY PRESSURE
VSB    - VISIBILITY IN MILES
HX     - HEAT INDEX IN FAHRENHEIT
WCI    - WIND CHILL INDEX IN FAHRENHEIT
TC     - TEMPERATURE IN CELSIUS WHICH IS ALSO KNOWN AS
         TEMPERATURE IN CENTIGRADE
AFB    - AIR FORCE BASE
         LUKE AFB IS LUKE AIR FORCE BASE
         DAVIS-MONTHAN IS DAVIS-MONTHAN AIR FORCE BASE
NAS    - NAVAL AIR STATION
         EL CENTRO NAS IS EL CENTRO NAVAL AIR STATION
N/A    - NOT AVAILABLE




USA.gov is the U.S. government's official web portal to all federal, state and local government web resources and services.